User: anonymous
Location: Unspecified
(0.0000°N, 0.0000°E)
Time: 05:56:22
(UTC+00:00)
Language:

LANDSAT 8 - Orbit

View from above orbital plane
View from above orbital plane
View from above satellite
View from above satellite

Ground track
Ground track

The orbit data is extracted from the following two-line orbital elements,

1 39084U 13008A   14262.13267078  .00000393  00000-0  97284-4 0  5912
2 39084 098.2125 331.0771 0001025 093.8658 266.2634 14.57118618 85130
Epoch (UTC): 19 September 2014 03:11:02
Eccentricity: 0.0001025
inclination: 98.2125°
perigee height: 702 km
apogee height: 703 km
right ascension of ascending node: 331.0771°
argument of perigee: 93.8658°
revolutions per day: 14.57118618
mean anomaly at epoch: 266.2634°
orbit number at epoch: 8513

The dashed part of the orbit path shows where the satellite is in the earth's shadow,  

DLR